Weather History for Lincoln, NE

Change the Weather History Date:

Friday, September 20, 2013

  Actual Average Record
Temperature  
Mean Temperature 60 °F 64 °F  
Max Temperature 73 °F 77 °F 95 °F (1940)
Min Temperature 47 °F 51 °F 31 °F (1918)
Degree Days  
Heating Degree Days 5 4  
Month to date heating degree days 13 39  
Since 1 July heating degree days 16 45  
Cooling Degree Days 0 3  
Month to date cooling degree days 172 102  
Year to date cooling degree days 1187 1137  
Growing Degree Days 10 (Base 50)    
Moisture  
Dew Point 45 °F    
Average Humidity 60    
Maximum Humidity 86    
Minimum Humidity 34    
Precipitation  
Precipitation 0.00 in 0.10 in 2.61 in (1955)
Month to date precipitation 1.75 2.13  
Year to date precipitation 22.20 23.71  
Snow  
Snow 0.00 in 0.00 in - ()
Month to date snowfall 0.0 0.0  
Since 1 July snowfall 0.0 0.0  
Snow Depth 0.00 in    
Sea Level Pressure  
Sea Level Pressure 30.05 in    
Wind  
Wind Speed 7 mph (NW)    
Max Wind Speed 21 mph    
Max Gust Speed 28 mph    
Visibility 10 miles    
Events      
T = Trace of Precipitation, MM = Missing Value Source: NWS Daily Summary

Daily Weather History Graph

Daily Weather History Graph

Search for Another Location

Airport:

Trip Planner

Search our weather history database for the weather conditions in past years. The results will help you decide how hot, cold, wet, or windy it might be!

Date:

Astronomy

Sep. 20, 2013 Rise Set
Actual Time 7:12 AM CDT 7:27 PM CDT
Civil Twilight 6:45 AM CDT 7:54 PM CDT
Nautical Twilight 6:13 AM CDT 8:26 PM CDT
Astronomical Twilight 5:40 AM CDT 8:59 PM CDT
Moon 8:00 PM CDT (9/20) 8:29 AM CDT (9/20)
Length of Visible Light 13h 09m
Length of Day
12h 14m
Full, 98% of the Moon is Illuminated
Sep 20
Full
Sep 26
Last Quarter
Oct 4
New
Oct 11
First Quarter
Oct 18
Full

Hourly Weather History & Observations

Time (CDT) Temp. Dew Point Humidity Pressure Visibility Wind Dir Wind Speed Gust Speed Precip Events Conditions
12:54 AM 57.0 °F 52.0 °F 83% 30.04 in 10.0 mi West 4.6 mph - N/A   Clear
1:54 AM 55.9 °F 51.1 °F 84% 30.05 in 10.0 mi WNW 4.6 mph - N/A   Clear
2:54 AM 55.9 °F 50.0 °F 80% 30.05 in 10.0 mi NW 6.9 mph - N/A   Clear
3:54 AM 55.0 °F 48.0 °F 77% 30.05 in 10.0 mi NW 5.8 mph - N/A   Clear
4:54 AM 53.1 °F 46.9 °F 80% 30.06 in 10.0 mi WNW 4.6 mph - N/A   Clear
5:54 AM 52.0 °F 46.0 °F 80% 30.07 in 10.0 mi Calm Calm - N/A   Clear
6:54 AM 51.1 °F 45.0 °F 80% 30.09 in 10.0 mi WNW 3.5 mph - N/A   Clear
7:54 AM 48.0 °F 45.0 °F 89% 30.11 in 10.0 mi SW 3.5 mph - N/A   Clear
8:54 AM 54.0 °F 44.1 °F 69% 30.12 in 10.0 mi WNW 5.8 mph - N/A   Clear
9:54 AM 60.1 °F 44.1 °F 55% 30.12 in 10.0 mi NNW 11.5 mph - N/A   Clear
10:54 AM 63.0 °F 42.1 °F 46% 30.11 in 10.0 mi NW 19.6 mph 23.0 mph N/A   Clear
11:54 AM 64.0 °F 42.1 °F 45% 30.10 in 10.0 mi NNW 13.8 mph 23.0 mph N/A   Clear
12:54 PM 66.9 °F 43.0 °F 42% 30.07 in 10.0 mi NW 17.3 mph 21.9 mph N/A   Clear
1:54 PM 69.1 °F 42.1 °F 38% 30.04 in 10.0 mi North 13.8 mph 19.6 mph N/A   Clear
2:54 PM 71.1 °F 42.1 °F 35% 30.01 in 10.0 mi North 13.8 mph - N/A   Clear
3:54 PM 72.0 °F 41.0 °F 33% 30.00 in 10.0 mi NNW 10.4 mph - N/A   Clear
4:54 PM 72.0 °F 41.0 °F 33% 29.99 in 10.0 mi NNW 11.5 mph 23.0 mph N/A   Clear
5:54 PM 72.0 °F 41.0 °F 33% 29.99 in 10.0 mi NNW 12.7 mph - N/A   Clear
6:54 PM 70.0 °F 41.0 °F 35% 29.99 in 10.0 mi NW 6.9 mph - N/A   Clear
7:54 PM 61.0 °F 44.1 °F 54% 30.01 in 10.0 mi North 3.5 mph - N/A   Clear
8:54 PM 59.0 °F 45.0 °F 60% 30.01 in 10.0 mi Calm Calm - N/A   Clear
9:54 PM 52.0 °F 46.0 °F 80% 30.03 in 10.0 mi Calm Calm - N/A   Clear
10:54 PM 50.0 °F 46.0 °F 86% 30.04 in 10.0 mi Calm Calm - N/A   Clear
11:54 PM 48.0 °F 45.0 °F 89% 30.04 in 10.0 mi North 4.6 mph - N/A   Clear